Year,Month,Day,Hour,Minute,Value (Times are PST for temperature in C)
2020,04,16,00,00,10.40
2020,04,16,00,01,10.40
2020,04,16,00,02,10.50
2020,04,16,00,03,10.50
2020,04,16,00,04,10.60
2020,04,16,00,05,10.60
2020,04,16,00,06,10.50
2020,04,16,00,07,10.50
2020,04,16,00,08,10.60
2020,04,16,00,09,10.60
2020,04,16,00,10,10.50
2020,04,16,00,11,10.50
2020,04,16,00,12,10.50
2020,04,16,00,13,10.60
2020,04,16,00,14,10.50
2020,04,16,00,15,10.40
2020,04,16,00,16,10.30
2020,04,16,00,17,10.20
2020,04,16,00,18,10.10
2020,04,16,00,19,10.00
2020,04,16,00,20,9.90
2020,04,16,00,21,9.90
2020,04,16,00,22,9.80
2020,04,16,00,23,9.80
2020,04,16,00,24,9.80
2020,04,16,00,25,9.70
2020,04,16,00,26,9.70
2020,04,16,00,27,9.70
2020,04,16,00,28,9.70
2020,04,16,00,29,9.70
2020,04,16,00,30,9.60
2020,04,16,00,31,9.50
2020,04,16,00,32,9.50
2020,04,16,00,33,9.40
2020,04,16,00,34,9.30
2020,04,16,00,35,9.20
2020,04,16,00,36,9.20
2020,04,16,00,37,9.10
2020,04,16,00,38,9.10
2020,04,16,00,39,9.00
2020,04,16,00,40,9.00
2020,04,16,00,41,8.90
2020,04,16,00,42,8.90
2020,04,16,00,43,8.90
2020,04,16,00,44,8.80
2020,04,16,00,45,8.80
2020,04,16,00,46,8.80
2020,04,16,00,47,8.80
2020,04,16,00,48,8.80
2020,04,16,00,49,8.80
2020,04,16,00,50,8.80
2020,04,16,00,51,8.80
2020,04,16,00,52,8.90
2020,04,16,00,53,8.90
2020,04,16,00,54,8.90
2020,04,16,00,55,8.90
2020,04,16,00,56,8.90
2020,04,16,00,57,8.90
2020,04,16,00,58,8.80
2020,04,16,00,59,8.80
2020,04,16,01,00,8.80
2020,04,16,01,01,8.80
2020,04,16,01,02,8.80
2020,04,16,01,03,8.80
2020,04,16,01,04,8.80
2020,04,16,01,05,8.80
2020,04,16,01,06,8.80
2020,04,16,01,07,8.80
2020,04,16,01,08,8.80
2020,04,16,01,09,8.80
2020,04,16,01,10,8.90
2020,04,16,01,11,8.90
2020,04,16,01,12,8.90
2020,04,16,01,13,9.00
2020,04,16,01,14,9.00
2020,04,16,01,15,9.10
2020,04,16,01,16,9.10
2020,04,16,01,17,9.10
2020,04,16,01,18,9.10
2020,04,16,01,19,9.20
2020,04,16,01,20,9.20
2020,04,16,01,21,9.20
2020,04,16,01,22,9.20
2020,04,16,01,23,9.20
2020,04,16,01,24,9.20
2020,04,16,01,25,9.30
2020,04,16,01,26,9.20
2020,04,16,01,27,9.20
2020,04,16,01,28,9.20
2020,04,16,01,29,9.20
2020,04,16,01,30,9.10
2020,04,16,01,31,9.10
2020,04,16,01,32,9.10
2020,04,16,01,33,9.10
2020,04,16,01,34,9.10
2020,04,16,01,35,9.10
2020,04,16,01,36,9.10
2020,04,16,01,37,9.10
2020,04,16,01,38,9.10
2020,04,16,01,39,9.10
2020,04,16,01,40,9.10
2020,04,16,01,41,9.10
2020,04,16,01,42,9.00
2020,04,16,01,43,9.00
2020,04,16,01,44,8.90
2020,04,16,01,45,8.90
2020,04,16,01,46,9.00
2020,04,16,01,47,9.00
2020,04,16,01,48,9.00
2020,04,16,01,49,9.00
2020,04,16,01,50,8.90
2020,04,16,01,51,8.90
2020,04,16,01,52,8.90
2020,04,16,01,53,8.90
2020,04,16,01,54,8.90
2020,04,16,01,55,8.80
2020,04,16,01,56,8.80
2020,04,16,01,57,8.80
2020,04,16,01,58,8.80
2020,04,16,01,59,8.80
2020,04,16,02,00,8.70
2020,04,16,02,01,8.70
2020,04,16,02,02,8.70
2020,04,16,02,03,8.70
2020,04,16,02,04,8.70
2020,04,16,02,05,8.60
2020,04,16,02,06,8.60
2020,04,16,02,07,8.60
2020,04,16,02,08,8.60
2020,04,16,02,09,8.60
2020,04,16,02,10,8.60
2020,04,16,02,11,8.60
2020,04,16,02,12,8.60
2020,04,16,02,13,8.60
2020,04,16,02,14,8.60
2020,04,16,02,15,8.60
2020,04,16,02,16,8.60
2020,04,16,02,17,8.60
2020,04,16,02,18,8.60
2020,04,16,02,19,8.60
2020,04,16,02,20,8.50
2020,04,16,02,21,8.50
2020,04,16,02,22,8.50
2020,04,16,02,23,8.50
2020,04,16,02,24,8.50
2020,04,16,02,25,8.50
2020,04,16,02,26,8.50
2020,04,16,02,27,8.50
2020,04,16,02,28,8.50
2020,04,16,02,29,8.50
2020,04,16,02,30,8.50
2020,04,16,02,31,8.40
2020,04,16,02,32,8.40
2020,04,16,02,33,8.40
2020,04,16,02,34,8.40
2020,04,16,02,35,8.40
2020,04,16,02,36,8.40
2020,04,16,02,37,8.40
2020,04,16,02,38,8.50
2020,04,16,02,39,8.50
2020,04,16,02,40,8.40
2020,04,16,02,41,8.40
2020,04,16,02,42,8.40
2020,04,16,02,43,8.40
2020,04,16,02,44,8.40
2020,04,16,02,45,8.30
2020,04,16,02,46,8.30
2020,04,16,02,47,8.30
2020,04,16,02,48,8.30
2020,04,16,02,49,8.30
2020,04,16,02,50,8.20
2020,04,16,02,51,8.20
2020,04,16,02,52,8.20
2020,04,16,02,53,8.20
2020,04,16,02,54,8.10
2020,04,16,02,55,8.10
2020,04,16,02,56,8.10
2020,04,16,02,57,8.10
2020,04,16,02,58,8.10
2020,04,16,02,59,8.00
2020,04,16,03,00,8.00
2020,04,16,03,01,8.00
2020,04,16,03,02,8.00
2020,04,16,03,03,8.00
2020,04,16,03,04,8.10
2020,04,16,03,05,8.10
2020,04,16,03,06,8.10
2020,04,16,03,07,8.10
2020,04,16,03,08,8.20
2020,04,16,03,09,8.20
2020,04,16,03,10,8.20
2020,04,16,03,11,8.20
2020,04,16,03,12,8.20
2020,04,16,03,13,8.20
2020,04,16,03,14,8.20
2020,04,16,03,15,8.20
2020,04,16,03,16,8.20
2020,04,16,03,17,8.20
2020,04,16,03,18,8.20
2020,04,16,03,19,8.20
2020,04,16,03,20,8.10
2020,04,16,03,21,8.10
2020,04,16,03,22,8.00
2020,04,16,03,23,8.00
2020,04,16,03,24,8.00
2020,04,16,03,25,8.00
2020,04,16,03,26,7.90
2020,04,16,03,27,7.90
2020,04,16,03,28,7.90
2020,04,16,03,29,7.90
2020,04,16,03,30,7.80
2020,04,16,03,31,7.80
2020,04,16,03,32,7.80
2020,04,16,03,33,7.80
2020,04,16,03,34,7.70
2020,04,16,03,35,7.80
2020,04,16,03,36,7.80
2020,04,16,03,37,7.80
2020,04,16,03,38,7.90
2020,04,16,03,39,8.00
2020,04,16,03,40,8.00
2020,04,16,03,41,8.10
2020,04,16,03,42,8.20
2020,04,16,03,43,8.20
2020,04,16,03,44,8.20
2020,04,16,03,45,8.20
2020,04,16,03,46,8.20
2020,04,16,03,47,8.20
2020,04,16,03,48,8.20
2020,04,16,03,49,8.20
2020,04,16,03,50,8.20
2020,04,16,03,51,8.20
2020,04,16,03,52,8.10
2020,04,16,03,53,8.10
2020,04,16,03,54,8.10
2020,04,16,03,55,8.10
2020,04,16,03,56,8.10
2020,04,16,03,57,8.10
2020,04,16,03,58,8.10
2020,04,16,03,59,8.10
2020,04,16,04,00,8.10
2020,04,16,04,01,8.10
2020,04,16,04,02,8.00
2020,04,16,04,03,8.00
2020,04,16,04,04,7.90
2020,04,16,04,05,7.90
2020,04,16,04,06,7.90
2020,04,16,04,07,7.90
2020,04,16,04,08,7.90
2020,04,16,04,09,7.80
2020,04,16,04,10,7.80
2020,04,16,04,11,7.80
2020,04,16,04,12,7.80
2020,04,16,04,13,7.80
2020,04,16,04,14,7.80
2020,04,16,04,15,7.80
2020,04,16,04,16,7.80
2020,04,16,04,17,7.80
2020,04,16,04,18,7.80
2020,04,16,04,19,7.80
2020,04,16,04,20,7.70
2020,04,16,04,21,7.70
2020,04,16,04,22,7.70
2020,04,16,04,23,7.60
2020,04,16,04,24,7.60
2020,04,16,04,25,7.60
2020,04,16,04,26,7.50
2020,04,16,04,27,7.40
2020,04,16,04,28,7.40
2020,04,16,04,29,7.40
2020,04,16,04,30,7.40
2020,04,16,04,31,7.30
2020,04,16,04,32,7.30
2020,04,16,04,33,7.30
2020,04,16,04,34,7.30
2020,04,16,04,35,7.20
2020,04,16,04,36,7.20
2020,04,16,04,37,7.20
2020,04,16,04,38,7.10
2020,04,16,04,39,7.10
2020,04,16,04,40,7.10
2020,04,16,04,41,7.00
2020,04,16,04,42,7.00
2020,04,16,04,43,6.90
2020,04,16,04,44,6.90
2020,04,16,04,45,6.90
2020,04,16,04,46,6.80
2020,04,16,04,47,6.80
2020,04,16,04,48,6.80
2020,04,16,04,49,6.80
2020,04,16,04,50,6.80
2020,04,16,04,51,6.80
2020,04,16,04,52,6.80
2020,04,16,04,53,6.80
2020,04,16,04,54,6.80
2020,04,16,04,55,6.80
2020,04,16,04,56,6.80
2020,04,16,04,57,6.80
2020,04,16,04,58,6.80
2020,04,16,04,59,6.80
2020,04,16,05,00,6.80
2020,04,16,05,01,6.90
2020,04,16,05,02,6.90
2020,04,16,05,03,6.90
2020,04,16,05,04,6.80
2020,04,16,05,05,6.80
2020,04,16,05,06,6.80
2020,04,16,05,07,6.80
2020,04,16,05,08,6.80
2020,04,16,05,09,6.80
2020,04,16,05,10,6.80
2020,04,16,05,11,6.80
2020,04,16,05,12,6.80
2020,04,16,05,13,6.70
2020,04,16,05,14,6.70
2020,04,16,05,15,6.70
2020,04,16,05,16,6.70
2020,04,16,05,17,6.70
2020,04,16,05,18,6.70
2020,04,16,05,19,6.70
2020,04,16,05,20,6.70
2020,04,16,05,21,6.70
2020,04,16,05,22,6.70
2020,04,16,05,23,6.70
2020,04,16,05,24,6.70
2020,04,16,05,25,6.80
2020,04,16,05,26,6.80
2020,04,16,05,27,6.80
2020,04,16,05,28,6.80
2020,04,16,05,29,6.80
2020,04,16,05,30,6.80
2020,04,16,05,31,6.80
2020,04,16,05,32,6.80
2020,04,16,05,33,6.80
2020,04,16,05,34,6.70
2020,04,16,05,35,6.70
2020,04,16,05,36,6.70
2020,04,16,05,37,6.70
2020,04,16,05,38,6.70
2020,04,16,05,39,6.70
2020,04,16,05,40,6.70
2020,04,16,05,41,6.70
2020,04,16,05,42,6.70
2020,04,16,05,43,6.70
2020,04,16,05,44,6.70
2020,04,16,05,45,6.70
2020,04,16,05,46,6.70
2020,04,16,05,47,6.70
2020,04,16,05,48,6.60
2020,04,16,05,49,6.60
2020,04,16,05,50,6.60
2020,04,16,05,51,6.60
2020,04,16,05,52,6.60
2020,04,16,05,53,6.50
2020,04,16,05,54,6.50
2020,04,16,05,55,6.50
2020,04,16,05,56,6.50
2020,04,16,05,57,6.50
2020,04,16,05,58,6.40
2020,04,16,05,59,6.40
2020,04,16,06,00,6.40
2020,04,16,06,01,6.40
2020,04,16,06,02,6.40
2020,04,16,06,03,6.40
2020,04,16,06,04,6.40
2020,04,16,06,05,6.40
2020,04,16,06,06,6.40
2020,04,16,06,07,6.40
2020,04,16,06,08,6.40
2020,04,16,06,09,6.40
2020,04,16,06,10,6.40
2020,04,16,06,11,6.40
2020,04,16,06,12,6.40
2020,04,16,06,13,6.40
2020,04,16,06,14,6.40
2020,04,16,06,15,6.40
2020,04,16,06,16,6.30
2020,04,16,06,17,6.30
2020,04,16,06,18,6.40
2020,04,16,06,19,6.40
2020,04,16,06,20,6.40
2020,04,16,06,21,6.40
2020,04,16,06,22,6.40
2020,04,16,06,23,6.40
2020,04,16,06,24,6.40
2020,04,16,06,25,6.40
2020,04,16,06,26,6.40
2020,04,16,06,27,6.40
2020,04,16,06,28,6.40
2020,04,16,06,29,6.40
2020,04,16,06,30,6.40
2020,04,16,06,31,6.40
2020,04,16,06,32,6.30
2020,04,16,06,33,6.30
2020,04,16,06,34,6.30
2020,04,16,06,35,6.30
2020,04,16,06,36,6.30
2020,04,16,06,37,6.30
2020,04,16,06,38,6.30
2020,04,16,06,39,6.30
2020,04,16,06,40,6.30
2020,04,16,06,41,6.30
2020,04,16,06,42,6.30
2020,04,16,06,43,6.30
2020,04,16,06,44,6.30
2020,04,16,06,45,6.30
2020,04,16,06,46,6.30
2020,04,16,06,47,6.30
2020,04,16,06,48,6.30
2020,04,16,06,49,6.30
2020,04,16,06,50,6.30
2020,04,16,06,51,6.30
2020,04,16,06,52,6.40
2020,04,16,06,53,6.40
2020,04,16,06,54,6.40
2020,04,16,06,55,6.40
2020,04,16,06,56,6.40
2020,04,16,06,57,6.50
2020,04,16,06,58,6.50
2020,04,16,06,59,6.50
2020,04,16,07,00,6.60
2020,04,16,07,01,6.60
2020,04,16,07,02,6.60
2020,04,16,07,03,6.70
2020,04,16,07,04,6.70
2020,04,16,07,05,6.70
2020,04,16,07,06,6.80
2020,04,16,07,07,6.80
2020,04,16,07,08,6.80
2020,04,16,07,09,6.80
2020,04,16,07,10,6.90
2020,04,16,07,11,6.90
2020,04,16,07,12,6.90
2020,04,16,07,13,6.90
2020,04,16,07,14,7.00
2020,04,16,07,15,7.00
2020,04,16,07,16,7.00
2020,04,16,07,17,7.10
2020,04,16,07,18,7.10
2020,04,16,07,19,7.10
2020,04,16,07,20,7.10
2020,04,16,07,21,7.20
2020,04,16,07,22,7.20
2020,04,16,07,23,7.20
2020,04,16,07,24,7.20
2020,04,16,07,25,7.20
2020,04,16,07,26,7.30
2020,04,16,07,27,7.30
2020,04,16,07,28,7.30
2020,04,16,07,29,7.30
2020,04,16,07,30,7.30
2020,04,16,07,31,7.30
2020,04,16,07,32,7.30
2020,04,16,07,33,7.30
2020,04,16,07,34,7.30
2020,04,16,07,35,7.30
2020,04,16,07,36,7.30
2020,04,16,07,37,7.30
2020,04,16,07,38,7.30
2020,04,16,07,39,7.30
2020,04,16,07,40,7.30
2020,04,16,07,41,7.30
2020,04,16,07,42,7.40
2020,04,16,07,43,7.40
2020,04,16,07,44,7.40
2020,04,16,07,45,7.40
2020,04,16,07,46,7.40
2020,04,16,07,47,7.40
2020,04,16,07,48,7.40
2020,04,16,07,49,7.40
2020,04,16,07,50,7.40
2020,04,16,07,51,7.40
2020,04,16,07,52,7.40
2020,04,16,07,53,7.40
2020,04,16,07,54,7.40
2020,04,16,07,55,7.40
2020,04,16,07,56,7.40
2020,04,16,07,57,7.40
2020,04,16,07,58,7.40
2020,04,16,07,59,7.40
2020,04,16,08,00,7.40
2020,04,16,08,01,7.40
2020,04,16,08,02,7.40
2020,04,16,08,03,7.40
2020,04,16,08,04,7.50
2020,04,16,08,05,7.50
2020,04,16,08,06,7.50
2020,04,16,08,07,7.60
2020,04,16,08,08,7.60
2020,04,16,08,09,7.70
2020,04,16,08,10,7.70
2020,04,16,08,11,7.80
2020,04,16,08,12,7.90
2020,04,16,08,13,8.00
2020,04,16,08,14,8.10
2020,04,16,08,15,8.20
2020,04,16,08,16,8.30
2020,04,16,08,17,8.40
2020,04,16,08,18,8.50
2020,04,16,08,19,8.60
2020,04,16,08,20,8.70
2020,04,16,08,21,8.80
2020,04,16,08,22,8.90
2020,04,16,08,23,9.00
2020,04,16,08,24,9.20
2020,04,16,08,25,9.30
2020,04,16,08,26,9.40
2020,04,16,08,27,9.50
2020,04,16,08,28,9.60
2020,04,16,08,29,9.70
2020,04,16,08,30,9.80
2020,04,16,08,31,9.80
2020,04,16,08,32,9.80
2020,04,16,08,33,9.90
2020,04,16,08,34,9.90
2020,04,16,08,35,9.90
2020,04,16,08,36,10.00
2020,04,16,08,37,10.00
2020,04,16,08,38,10.00
2020,04,16,08,39,10.00
2020,04,16,08,40,10.10
2020,04,16,08,41,10.10
2020,04,16,08,42,10.10
2020,04,16,08,43,10.20
2020,04,16,08,44,10.20
2020,04,16,08,45,10.20
2020,04,16,08,46,10.20
2020,04,16,08,47,10.30
2020,04,16,08,48,10.30
2020,04,16,08,49,10.30
2020,04,16,08,50,10.30
2020,04,16,08,51,10.40
2020,04,16,08,52,10.40
2020,04,16,08,53,10.40
2020,04,16,08,54,10.50
2020,04,16,08,55,10.50
2020,04,16,08,56,10.50
2020,04,16,08,57,10.60
2020,04,16,08,58,10.60
2020,04,16,08,59,10.60
2020,04,16,09,00,10.70
2020,04,16,09,01,10.70
2020,04,16,09,02,10.70
2020,04,16,09,03,10.80
2020,04,16,09,04,10.80
2020,04,16,09,05,10.90
2020,04,16,09,06,10.90
2020,04,16,09,07,11.00
2020,04,16,09,08,11.00
2020,04,16,09,09,11.10
2020,04,16,09,10,11.10
2020,04,16,09,11,11.10
2020,04,16,09,12,11.20
2020,04,16,09,13,11.30
2020,04,16,09,14,11.30
2020,04,16,09,15,11.40
2020,04,16,09,16,11.50
2020,04,16,09,17,11.60
2020,04,16,09,18,11.70
2020,04,16,09,19,11.80
2020,04,16,09,20,11.80
2020,04,16,09,21,11.90
2020,04,16,09,22,11.90
2020,04,16,09,23,11.90
2020,04,16,09,24,12.00
2020,04,16,09,25,12.00
2020,04,16,09,26,12.10
2020,04,16,09,27,12.10
2020,04,16,09,28,12.10
2020,04,16,09,29,12.10
2020,04,16,09,30,12.10
2020,04,16,09,31,12.10
2020,04,16,09,32,12.20
2020,04,16,09,33,12.20
2020,04,16,09,34,12.20
2020,04,16,09,35,12.20
2020,04,16,09,36,12.30
2020,04,16,09,37,12.30
2020,04,16,09,38,12.40
2020,04,16,09,39,12.40
2020,04,16,09,40,12.50
2020,04,16,09,41,12.50
2020,04,16,09,42,12.60
2020,04,16,09,43,12.70
2020,04,16,09,44,12.80
2020,04,16,09,45,12.80
2020,04,16,09,46,12.80
2020,04,16,09,47,12.80
2020,04,16,09,48,12.80
2020,04,16,09,49,12.90
2020,04,16,09,50,13.00
2020,04,16,09,51,13.00
2020,04,16,09,52,13.00
2020,04,16,09,53,13.10
2020,04,16,09,54,13.10
2020,04,16,09,55,13.10
2020,04,16,09,56,13.10
2020,04,16,09,57,13.10
2020,04,16,09,58,13.10
2020,04,16,09,59,13.20
2020,04,16,10,00,13.20
2020,04,16,10,01,13.20
2020,04,16,10,02,13.20
2020,04,16,10,03,13.20
2020,04,16,10,04,13.20
2020,04,16,10,05,13.20
2020,04,16,10,06,13.20
2020,04,16,10,07,13.20
2020,04,16,10,08,13.30
2020,04,16,10,09,13.30
2020,04,16,10,10,13.30
2020,04,16,10,11,13.40
2020,04,16,10,12,13.40
2020,04,16,10,13,13.40
2020,04,16,10,14,13.50
2020,04,16,10,15,13.50
2020,04,16,10,16,13.50
2020,04,16,10,17,13.50
2020,04,16,10,18,13.60
2020,04,16,10,19,13.60
2020,04,16,10,20,13.60
2020,04,16,10,21,13.60
2020,04,16,10,22,13.60
2020,04,16,10,23,13.70
2020,04,16,10,24,13.70
2020,04,16,10,25,13.80
2020,04,16,10,26,13.80
2020,04,16,10,27,13.70
2020,04,16,10,28,13.60
2020,04,16,10,29,13.60
2020,04,16,10,30,13.60
2020,04,16,10,31,13.60
2020,04,16,10,32,13.60
2020,04,16,10,33,13.70
2020,04,16,10,34,13.70
2020,04,16,10,35,13.70
2020,04,16,10,36,13.70
2020,04,16,10,37,13.70
2020,04,16,10,38,13.70
2020,04,16,10,39,13.70
2020,04,16,10,40,13.70
2020,04,16,10,41,13.70
2020,04,16,10,42,13.70
2020,04,16,10,43,13.70
2020,04,16,10,44,13.70
2020,04,16,10,45,13.70
2020,04,16,10,46,13.80
2020,04,16,10,47,13.80
2020,04,16,10,48,13.90
2020,04,16,10,49,13.90
2020,04,16,10,50,14.00
2020,04,16,10,51,14.00
2020,04,16,10,52,14.10
2020,04,16,10,53,14.10
2020,04,16,10,54,14.10
2020,04,16,10,55,14.20
2020,04,16,10,56,14.20
2020,04,16,10,57,14.10
2020,04,16,10,58,14.10
2020,04,16,10,59,14.10
2020,04,16,11,00,14.00
2020,04,16,11,01,13.90
2020,04,16,11,02,13.90
2020,04,16,11,03,13.90
2020,04,16,11,04,13.90
2020,04,16,11,05,13.90
2020,04,16,11,06,14.00
2020,04,16,11,07,14.10
2020,04,16,11,08,14.20
2020,04,16,11,09,14.20
2020,04,16,11,10,14.20
2020,04,16,11,11,14.20
2020,04,16,11,12,14.20
2020,04,16,11,13,14.20
2020,04,16,11,14,14.20
2020,04,16,11,15,14.30
2020,04,16,11,16,14.30
2020,04,16,11,17,14.40
2020,04,16,11,18,14.40
2020,04,16,11,19,14.40
2020,04,16,11,20,14.40
2020,04,16,11,21,14.40
2020,04,16,11,22,14.40
2020,04,16,11,23,14.50
2020,04,16,11,24,14.50
2020,04,16,11,25,14.60
2020,04,16,11,26,14.60
2020,04,16,11,27,14.70
2020,04,16,11,28,14.70
2020,04,16,11,29,14.80
2020,04,16,11,30,14.80
2020,04,16,11,31,14.90
2020,04,16,11,32,14.90
2020,04,16,11,33,14.80
2020,04,16,11,34,14.80
2020,04,16,11,35,14.80
2020,04,16,11,36,14.70
2020,04,16,11,37,14.60
2020,04,16,11,38,14.60
2020,04,16,11,39,14.70
2020,04,16,11,40,14.70
2020,04,16,11,41,14.70
2020,04,16,11,42,14.70
2020,04,16,11,43,14.60
2020,04,16,11,44,14.60
2020,04,16,11,45,14.50
2020,04,16,11,46,14.40
2020,04,16,11,47,14.30
2020,04,16,11,48,14.30
2020,04,16,11,49,14.20
2020,04,16,11,50,14.20
2020,04,16,11,51,14.20
2020,04,16,11,52,14.10
2020,04,16,11,53,14.10
2020,04,16,11,54,14.00
2020,04,16,11,55,14.00
2020,04,16,11,56,14.00
2020,04,16,11,57,14.10
2020,04,16,11,58,14.20
2020,04,16,11,59,14.20
2020,04,16,12,00,14.30
2020,04,16,12,01,14.30
2020,04,16,12,02,14.30
2020,04,16,12,03,14.20
2020,04,16,12,04,14.10
2020,04,16,12,05,14.00
2020,04,16,12,06,13.90
2020,04,16,12,07,13.90
2020,04,16,12,08,13.80
2020,04,16,12,09,13.90
2020,04,16,12,10,13.90
2020,04,16,12,11,13.90
2020,04,16,12,12,14.00
2020,04,16,12,13,14.00
2020,04,16,12,14,14.00
2020,04,16,12,15,14.10
2020,04,16,12,16,14.10
2020,04,16,12,17,14.20
2020,04,16,12,18,14.20
2020,04,16,12,19,14.20
2020,04,16,12,20,14.20
2020,04,16,12,21,14.20
2020,04,16,12,22,14.20
2020,04,16,12,23,14.20
2020,04,16,12,24,14.20
2020,04,16,12,25,14.20
2020,04,16,12,26,14.20
2020,04,16,12,27,14.20
2020,04,16,12,28,14.20
2020,04,16,12,29,14.30
2020,04,16,12,30,14.30
2020,04,16,12,31,14.30
2020,04,16,12,32,14.30
2020,04,16,12,33,14.30
2020,04,16,12,34,14.40
2020,04,16,12,35,14.50
2020,04,16,12,36,14.60
2020,04,16,12,37,14.70
2020,04,16,12,38,14.70
2020,04,16,12,39,14.70
2020,04,16,12,40,14.70
2020,04,16,12,41,14.70
2020,04,16,12,42,14.60
2020,04,16,12,43,14.70
2020,04,16,12,44,14.60
2020,04,16,12,45,14.60
2020,04,16,12,46,14.60
2020,04,16,12,47,14.60
2020,04,16,12,48,14.50
2020,04,16,12,49,14.50
2020,04,16,12,50,14.50
2020,04,16,12,51,14.50
2020,04,16,12,52,14.50
2020,04,16,12,53,14.40
2020,04,16,12,54,14.40
2020,04,16,12,55,14.40
2020,04,16,12,56,14.40
2020,04,16,12,57,14.50
2020,04,16,12,58,14.50
2020,04,16,12,59,14.60
2020,04,16,13,00,14.60
2020,04,16,13,01,14.60
2020,04,16,13,02,14.70
2020,04,16,13,03,14.70
2020,04,16,13,04,14.80
2020,04,16,13,05,14.90
2020,04,16,13,06,14.90
2020,04,16,13,07,14.90
2020,04,16,13,08,14.90
2020,04,16,13,09,14.90
2020,04,16,13,10,14.80
2020,04,16,13,11,14.80
2020,04,16,13,12,14.80
2020,04,16,13,13,14.80
2020,04,16,13,14,14.70
2020,04,16,13,15,14.70
2020,04,16,13,16,14.70
2020,04,16,13,17,14.80
2020,04,16,13,18,14.80
2020,04,16,13,19,14.80
2020,04,16,13,20,14.80
2020,04,16,13,21,14.80
2020,04,16,13,22,14.80
2020,04,16,13,23,14.80
2020,04,16,13,24,14.90
2020,04,16,13,25,14.90
2020,04,16,13,26,15.00
2020,04,16,13,27,15.00
2020,04,16,13,28,15.00
2020,04,16,13,29,15.10
2020,04,16,13,30,15.10
2020,04,16,13,31,15.10
2020,04,16,13,32,15.20
2020,04,16,13,33,15.20
2020,04,16,13,34,15.20
2020,04,16,13,35,15.20
2020,04,16,13,36,15.30
2020,04,16,13,37,15.40
2020,04,16,13,38,15.50
2020,04,16,13,39,15.50
2020,04,16,13,40,15.60
2020,04,16,13,41,15.60
2020,04,16,13,42,15.70
2020,04,16,13,43,15.70
2020,04,16,13,44,15.70
2020,04,16,13,45,15.80
2020,04,16,13,46,15.80
2020,04,16,13,47,15.90
2020,04,16,13,48,15.90
2020,04,16,13,49,15.90
2020,04,16,13,50,16.00
2020,04,16,13,51,16.00
2020,04,16,13,52,16.10
2020,04,16,13,53,16.10
2020,04,16,13,54,16.20
2020,04,16,13,55,16.30
2020,04,16,13,56,16.30
2020,04,16,13,57,16.30
2020,04,16,13,58,16.30
2020,04,16,13,59,16.30
2020,04,16,14,00,16.30
2020,04,16,14,01,16.30
2020,04,16,14,02,16.30
2020,04,16,14,03,16.30
2020,04,16,14,04,16.30
2020,04,16,14,05,16.20
2020,04,16,14,06,16.20
2020,04,16,14,07,16.20
2020,04,16,14,08,16.20
2020,04,16,14,09,16.20
2020,04,16,14,10,16.20
2020,04,16,14,11,16.20
2020,04,16,14,12,16.20
2020,04,16,14,13,16.20
2020,04,16,14,14,16.30
2020,04,16,14,15,16.30
2020,04,16,14,16,16.30
2020,04,16,14,17,16.30
2020,04,16,14,18,16.30
2020,04,16,14,19,16.30
2020,04,16,14,20,16.40
2020,04,16,14,21,16.40
2020,04,16,14,22,16.40
2020,04,16,14,23,16.40
2020,04,16,14,24,16.40
2020,04,16,14,25,16.40
2020,04,16,14,26,16.40
2020,04,16,14,27,16.40
2020,04,16,14,28,16.40
2020,04,16,14,29,16.50
2020,04,16,14,30,16.50
2020,04,16,14,31,16.50
2020,04,16,14,32,16.60
2020,04,16,14,33,16.70
2020,04,16,14,34,16.70
2020,04,16,14,35,16.80
2020,04,16,14,36,16.80
2020,04,16,14,37,16.80
2020,04,16,14,38,16.70
2020,04,16,14,39,16.70
2020,04,16,14,40,16.70
2020,04,16,14,41,16.70
2020,04,16,14,42,16.70
2020,04,16,14,43,16.60
2020,04,16,14,44,16.70
2020,04,16,14,45,16.70
2020,04,16,14,46,16.70
2020,04,16,14,47,16.70
2020,04,16,14,48,16.70
2020,04,16,14,49,16.70
2020,04,16,14,50,16.70
2020,04,16,14,51,16.70
2020,04,16,14,52,16.70
2020,04,16,14,53,16.70
2020,04,16,14,54,16.80
2020,04,16,14,55,16.70
2020,04,16,14,56,16.70
2020,04,16,14,57,16.70
2020,04,16,14,58,16.70
2020,04,16,14,59,16.70
2020,04,16,15,00,16.70
2020,04,16,15,01,16.70
2020,04,16,15,02,16.70
2020,04,16,15,03,16.80
2020,04,16,15,04,16.80
2020,04,16,15,05,16.80
2020,04,16,15,06,16.80
2020,04,16,15,07,16.90
2020,04,16,15,08,16.90
2020,04,16,15,09,16.90
2020,04,16,15,10,16.90
2020,04,16,15,11,16.90
2020,04,16,15,12,17.00
2020,04,16,15,13,17.00
2020,04,16,15,14,17.10
2020,04,16,15,15,17.10
2020,04,16,15,16,17.10
2020,04,16,15,17,17.10
2020,04,16,15,18,17.20
2020,04,16,15,19,17.20
2020,04,16,15,20,17.20
2020,04,16,15,21,17.20
2020,04,16,15,22,17.20
2020,04,16,15,23,17.20
2020,04,16,15,24,17.10
2020,04,16,15,25,17.10
2020,04,16,15,26,17.10
2020,04,16,15,27,17.10
2020,04,16,15,28,17.10
2020,04,16,15,29,17.10
2020,04,16,15,30,17.00
2020,04,16,15,31,17.00
2020,04,16,15,32,17.00
2020,04,16,15,33,17.00
2020,04,16,15,34,17.00
2020,04,16,15,35,17.00
2020,04,16,15,36,17.00
2020,04,16,15,37,17.00
2020,04,16,15,38,17.00
2020,04,16,15,39,17.20
2020,04,16,15,40,17.20
2020,04,16,15,41,17.20
2020,04,16,15,42,17.20
2020,04,16,15,43,17.20
2020,04,16,15,44,17.20
2020,04,16,15,45,17.20
2020,04,16,15,46,17.30
2020,04,16,15,47,17.30
2020,04,16,15,48,17.30
2020,04,16,15,49,17.30
2020,04,16,15,50,17.40
2020,04,16,15,51,17.40
2020,04,16,15,52,17.40
2020,04,16,15,53,17.40
2020,04,16,15,54,17.40
2020,04,16,15,55,17.40
2020,04,16,15,56,17.40
2020,04,16,15,57,17.40
2020,04,16,15,58,17.40
2020,04,16,15,59,17.50
2020,04,16,16,00,17.50
2020,04,16,16,01,17.50
2020,04,16,16,02,17.50
2020,04,16,16,03,17.50
2020,04,16,16,04,17.50
2020,04,16,16,05,17.50
2020,04,16,16,06,17.50
2020,04,16,16,07,17.50
2020,04,16,16,08,17.60
2020,04,16,16,09,17.60
2020,04,16,16,10,17.60
2020,04,16,16,11,17.60
2020,04,16,16,12,17.60
2020,04,16,16,13,17.60
2020,04,16,16,14,17.60
2020,04,16,16,15,17.70
2020,04,16,16,16,17.70
2020,04,16,16,17,17.80
2020,04,16,16,18,17.80
2020,04,16,16,19,17.80
2020,04,16,16,20,17.80
2020,04,16,16,21,17.90
2020,04,16,16,22,17.90
2020,04,16,16,23,17.90
2020,04,16,16,24,18.00
2020,04,16,16,25,18.00
2020,04,16,16,26,18.10
2020,04,16,16,27,18.20
2020,04,16,16,28,18.20
2020,04,16,16,29,18.30
2020,04,16,16,30,18.30
2020,04,16,16,31,18.30
2020,04,16,16,32,18.40
2020,04,16,16,33,18.40
2020,04,16,16,34,18.50
2020,04,16,16,35,18.50
2020,04,16,16,36,18.60
2020,04,16,16,37,18.60
2020,04,16,16,38,18.60
2020,04,16,16,39,18.60
2020,04,16,16,40,18.60
2020,04,16,16,41,18.60
2020,04,16,16,42,18.60
2020,04,16,16,43,18.60
2020,04,16,16,44,18.70
2020,04,16,16,45,18.70
2020,04,16,16,46,18.70
2020,04,16,16,47,18.60
2020,04,16,16,48,18.60
2020,04,16,16,49,18.60
2020,04,16,16,50,18.60
2020,04,16,16,51,18.60
2020,04,16,16,52,18.60
2020,04,16,16,53,18.60
2020,04,16,16,54,18.60
2020,04,16,16,55,18.70
2020,04,16,16,56,18.70
2020,04,16,16,57,18.70
2020,04,16,16,58,18.70
2020,04,16,16,59,18.70
2020,04,16,17,00,18.70
2020,04,16,17,01,18.70
2020,04,16,17,02,18.70
2020,04,16,17,03,18.70
2020,04,16,17,04,18.70
2020,04,16,17,05,18.70
2020,04,16,17,06,18.60
2020,04,16,17,07,18.60
2020,04,16,17,08,18.60
2020,04,16,17,09,18.60
2020,04,16,17,10,18.60
2020,04,16,17,11,18.70
2020,04,16,17,12,18.70
2020,04,16,17,13,18.70
2020,04,16,17,14,18.70
2020,04,16,17,15,18.70
2020,04,16,17,16,18.60
2020,04,16,17,17,18.60
2020,04,16,17,18,18.60
2020,04,16,17,19,18.60
2020,04,16,17,20,18.70
2020,04,16,17,21,18.70
2020,04,16,17,22,18.70
2020,04,16,17,23,18.70
2020,04,16,17,24,18.70
2020,04,16,17,25,18.70
2020,04,16,17,26,18.70
2020,04,16,17,27,18.70
2020,04,16,17,28,18.70
2020,04,16,17,29,18.70
2020,04,16,17,30,18.70
2020,04,16,17,31,18.70
2020,04,16,17,32,18.70
2020,04,16,17,33,18.70
2020,04,16,17,34,18.70
2020,04,16,17,35,18.70
2020,04,16,17,36,18.70
2020,04,16,17,37,18.70
2020,04,16,17,38,18.70
2020,04,16,17,39,18.70
2020,04,16,17,40,18.70
2020,04,16,17,41,18.70